Regional Weather Roundup
Issued by NWS

Home | Current Version | Previous Version | Graphics & Text | Print | Product List | Glossary On
Versions: 1 2 3 4 5 6 7 8 9 10 11 12 13 14 15 16 17 18 19 20 21 22 23 24 25 26 27 28 29 30 31 32 33 34 35 36 37 38 39 40 41 42 43 44 45 46 47 48 49 50
000
ASUS43 KOAX 301302
RWRNE

WEATHER ROUNDUP FOR NEBRASKA
NATIONAL WEATHER SERVICE OMAHA NE
800 AM CDT THU JUL 30 2015

NOTES: SATELLITE DATA IS BEING USED TO AUGMENT CLOUD COVER ABOVE
       12000 FEET.
       "FAIR" INDICATES FEW OR NO CLOUDS BELOW 12,000 FEET WITH NO
       SIGNIFICANT WEATHER AND/OR OBSTRUCTIONS TO VISIBILITY.

  * THESE STATIONS DO NOT REPORT WEATHER SUCH AS RAIN...SNOW OR FOG.

NEZ001>004-019>022-054>056-301400-
NEBRASKA PANHANDLE

CITY           SKY/WX    TMP DP  RH WIND       PRES   REMARKS
SCOTTSBLUFF    SUNNY     60  52  74 NE5       30.27R
ALLIANCE       MOSUNNY   59  52  77 NE3       30.28R
CHADRON        SUNNY     55  50  83 SW6       30.26R
KIMBALL        SUNNY     57  52  82 W7        30.30R
SIDNEY         SUNNY     63  59  87 S10       30.29S
$$

NEZ057>060-069>072-079>082-301400-
SOUTHWEST NEBRASKA

CITY           SKY/WX    TMP DP  RH WIND       PRES   REMARKS
NORTH PLATTE   SUNNY     62  56  80 CALM      30.26S
IMPERIAL       SUNNY     59  53  80 SW3       30.27S
MCCOOK         SUNNY     60  55  83 CALM      30.26R
$$

NEZ005>010-023>029-035>040-094-301400-
NORTH CENTRAL NEBRASKA

CITY           SKY/WX    TMP DP  RH WIND       PRES   REMARKS
VALENTINE      SUNNY     61  53  75 SW6       30.22R
AINSWORTH      MOSUNNY   63  56  80 SW6       30.23S
BROKEN BOW     SUNNY     65  57  75 W3        30.24R
O`NEILL        MOSUNNY   64  58  79 W7        30.22S
ORD            SUNNY     63  57  81 NW3       30.21R
$$

NEZ041-046>049-061>064-073>077-083>087-301400-
SOUTH CENTRAL NEBRASKA

CITY           SKY/WX    TMP DP  RH WIND       PRES   REMARKS
GRAND ISLAND   SUNNY     67  59  75 SW6       30.23S
AURORA         SUNNY     64  60  87 SW5       30.22S
HASTINGS       SUNNY     63  57  81 W5        30.24R
KEARNEY *      SUNNY     63  55  77 SW7       30.24S
$$

NEZ011>018-030>034-042>045-301400-
NORTHEAST NEBRASKA

CITY           SKY/WX    TMP DP  RH WIND       PRES   REMARKS
NORFOLK        SUNNY     66  57  72 W3        30.19S
BLAIR          SUNNY     65  59  81 CALM      30.20R
COLUMBUS *     SUNNY     64  52  63 W3        30.21R
FREMONT        SUNNY     65  57  74 W5        30.20R
TEKAMAH        SUNNY     66  62  87 SE3       30.18R
$$

NEZ050>053-065>068-078-088>093-301400-
SOUTHEAST NEBRASKA

CITY           SKY/WX    TMP DP  RH WIND       PRES   REMARKS
LINCOLN        SUNNY     67  58  72 VRB3      30.20R
OMAHA EPPLEY   SUNNY     68  62  81 CALM      30.19R
FALLS CITY     SUNNY     67  64  90 W3        30.20R
NEBRASKA CITY  SUNNY     67  61  82 SW7       30.20R
$$

NEZ044-045-051>053-067-301400-
OMAHA AREA

CITY           SKY/WX    TMP DP  RH WIND       PRES   REMARKS
OMAHA EPPLEY   SUNNY     68  62  81 CALM      30.19R
BLAIR          SUNNY     65  59  81 CALM      30.20R
FREMONT        SUNNY     65  57  74 W5        30.20R
OFFUTT AFB     SUNNY     65  65 100 W6        30.19R
$$



USA.gov is the U.S. government's official web portal to all federal, state and local government web resources and services.